Temperature
25 24 23 24 24 24 24 24 23 23 24 23 22 22 22 22 22 21 21 20 20 19 19 18 17 17 17 16 16 16 15 15 15 15 14 14 14 14 14 14 14 14 14 14
24 23 24 25 25 24 24 23 23 23 24 23 22 22 22 22 21 21 21 20 20 19 19 18 17 17 16 16 16 16 15 15 15 14 14 14 14 14 14 13 13 14 14 14
23 24 25 24 24 24 24 23 23 23 23 23 22 21 22 22 22 21 21 20 19 19 18 18 17 17 16 16 16 15 15 15 15 14 14 14 14 14 13 13 13 13 13 13
24 24 24 24 23 23 23 23 23 23 22 22 22 20 21 22 21 21 20 20 19 19 18 18 17 16 16 16 16 15 15 15 14 14 14 14 13 13 13 13 13 13 13 13
23 23 23 23 23 23 23 23 23 23 22 22 22 21 21 22 21 20 20 19 19 19 18 17 17 16 16 16 15 15 15 15 14 14 14 14 13 13 13 13 13 13 13 12
23 24 23 23 23 24 23 23 23 23 22 21 22 21 20 21 21 20 20 19 18 18 18 17 17 16 16 15 15 15 15 14 14 14 14 13 13 13 13 13 12 12 12 12
23 23 23 23 23 23 23 22 21 21 20 21 23 22 20 21 21 21 20 19 18 18 17 17 16 16 15 15 15 15 14 14 14 14 13 13 13 13 13 12 12 12 12 12
22 22 23 23 22 22 22 22 20 20 21 21 23 21 20 21 21 21 20 19 18 17 17 16 16 15 15 15 15 14 14 14 13 13 13 13 13 12 12 12 12 12 12 12
22 22 23 23 23 22 22 22 23 21 22 21 22 21 20 21 21 20 19 18 18 17 16 16 15 15 15 15 14 14 14 13 13 13 13 12 12 12 12 12 12 11 11 11
23 21 22 23 22 22 22 22 21 21 20 20 21 21 20 20 20 20 19 19 18 17 16 16 15 15 15 14 14 14 13 13 13 13 12 12 12 12 12 11 11 11 11 11
23 21 22 22 21 21 22 21 21 21 21 20 19 20 22 21 20 20 19 19 18 17 16 16 15 15 14 14 14 13 13 13 13 12 12 12 12 11 11 11 11 11 11 11
22 21 21 22 22 22 22 22 21 20 20 21 20 19 22 21 20 20 19 18 17 17 16 15 15 14 14 13 13 13 13 13 12 12 12 12 11 11 11 11 11 10 10 10
21 21 20 20 21 21 21 22 21 21 21 20 19 19 21 21 20 19 19 18 17 16 15 15 14 14 13 13 13 13 12 12 12 12 12 11 11 11 11 11 10 10 10 10
19 20 20 20 20 21 21 21 21 21 20 20 19 19 20 20 19 19 18 18 17 16 15 14 14 13 13 13 12 12 12 12 12 11 11 11 11 11 10 10 10 10 10 10
20 20 21 21 21 21 21 21 21 20 20 20 20 19 20 19 19 19 18 17 16 15 15 14 14 13 13 12 12 12 11 11 11 11 11 11 10 10 10 10 10 10 9 9
20 20 20 20 21 21 20 20 20 20 20 20 20 19 20 20 19 18 18 17 16 15 14 14 13 13 12 12 12 11 11 11 11 10 10 10 10 10 10 9 9 9 9 9
20 20 19 19 20 20 19 20 20 20 20 20 19 19 19 19 18 18 17 16 16 15 14 13 13 12 12 12 11 11 11 10 10 10 10 10 10 9 9 9 9 9 9 8
19 19 19 19 19 18 19 21 20 20 19 19 19 19 19 18 18 17 17 16 15 14 14 13 12 12 12 11 11 11 10 10 10 10 10 10 9 9 9 9 8 8 8 8
19 19 19 18 18 18 19 19 19 19 18 19 19 18 18 18 17 16 16 15 15 14 13 12 12 11 11 11 11 10 10 10 10 9 9 9 9 9 8 8 8 8 8 8
19 19 18 18 17 17 18 19 19 19 17 18 18 17 17 17 15 15 15 14 14 13 12 12 12 11 11 10 10 10 10 10 9 9 9 8 8 8 8 8 8 8 7 7
18 18 17 17 17 17 18 18 18 16 16 17 17 17 16 16 15 15 14 14 13 12 12 11 11 10 10 10 10 9 9 9 9 9 8 8 8 8 8 8 7 7 7 7
18 17 17 17 16 16 17 17 16 16 16 16 16 16 15 15 15 14 13 13 12 12 11 11 10 10 9 9 9 9 9 8 8 8 8 8 7 7 7 7 7 7 7 7
18 17 17 16 16 16 16 16 16 16 16 15 15 15 14 14 14 13 13 12 11 11 10 10 10 9 9 9 8 8 8 8 8 8 7 7 7 7 7 7 7 7 6 6
17 18 17 16 16 16 16 15 15 15 15 14 14 14 14 13 13 12 12 11 11 10 10 9 9 9 8 8 8 8 8 8 7 7 7 7 7 7 6 6 6 6 6 6
16 16 16 15 15 15 15 15 14 14 14 13 13 13 13 12 12 12 11 11 10 9 9 9 8 8 8 8 7 7 7 7 7 7 6 6 6 6 6 6 6 6 6 6
16 15 15 14 15 14 14 14 13 13 13 13 13 12 12 12 11 11 10 10 9 9 9 8 8 8 7 7 7 7 7 7 6 6 6 6 6 6 6 6 6 5 5 5
Wind_Speed
3 3 2 2 3 5 5 4 3 2 3 3 3 3 4 5 5 5 4 4 5 6 7 7 6 5 4 4 4 4 4 4 3 2 2 2 2 2 3 4 6 6 7 6
3 2 2 3 4 5 5 5 3 2 2 2 3 4 4 5 5 4 4 3 4 4 4 6 6 5 4 3 4 4 4 4 3 3 2 2 2 2 2 3 4 5 5 5
2 1 2 4 4 5 4 4 4 3 3 4 3 4 4 5 5 5 5 3 3 4 3 6 6 5 4 3 3 4 4 4 4 4 2 2 2 1 1 1 2 3 5 5
1 3 4 4 4 6 4 4 5 6 6 4 5 4 4 6 5 5 4 4 3 3 4 5 6 5 4 3 3 3 3 4 4 4 3 2 1 1 1 1 1 2 3 4
1 3 4 4 4 6 4 5 7 9 8 7 6 4 3 5 5 4 4 4 3 3 4 5 6 6 4 4 3 2 3 3 3 3 3 2 2 1 1 2 2 2 3 4
4 3 2 4 6 6 6 8 9 9 7 7 6 4 1 1 2 4 4 4 3 4 5 4 5 5 4 4 4 3 3 3 2 2 3 3 2 2 2 2 2 1 1 2
5 4 3 3 5 5 5 6 4 4 5 3 2 2 2 3 3 5 5 5 4 4 5 5 5 4 4 4 3 3 4 3 2 2 2 2 1 2 2 1 1 1 1 1
4 3 2 2 4 5 6 6 4 4 3 2 2 1 4 5 5 5 6 6 5 6 4 4 5 4 4 4 3 3 4 2 2 2 1 1 1 1 1 1 1 1 1 1
4 2 2 3 3 6 6 5 6 6 9 6 2 3 4 5 5 6 6 6 5 5 5 4 5 5 4 3 3 3 2 2 2 1 2 2 2 2 1 1 1 1 1 2
5 5 3 4 5 6 6 6 5 4 4 4 2 2 2 5 4 5 5 5 5 5 5 5 4 4 3 3 3 3 2 2 2 1 1 2 2 2 1 1 2 2 2 2
8 5 4 4 4 4 4 5 5 5 4 4 3 1 2 3 4 4 4 5 5 4 4 4 4 4 4 3 3 2 2 1 1 1 1 2 2 2 2 1 1 2 2 2
5 5 6 5 4 4 5 5 5 5 5 5 4 1 3 3 4 4 4 4 5 5 4 4 4 4 3 3 2 2 1 1 1 1 1 2 2 2 2 1 1 1 1 1
6 5 5 3 4 4 4 4 6 7 6 5 5 1 2 4 5 4 4 3 4 5 4 4 4 3 3 2 2 2 2 2 2 2 2 2 2 2 1 1 1 1 1 1
4 6 6 5 4 3 4 6 6 6 5 5 4 3 0 2 3 4 3 3 4 4 4 4 3 2 2 2 2 2 2 2 2 1 1 2 1 1 1 1 0 0 1 1
4 7 7 7 8 7 6 7 7 7 7 6 5 3 2 2 2 3 4 4 4 3 3 3 3 2 1 2 2 2 2 1 1 1 1 1 1 1 1 1 0 1 1 1
5 7 8 9 8 6 8 7 7 7 6 7 6 4 2 2 2 2 3 3 3 3 2 2 2 1 1 1 2 1 1 1 1 1 1 1 1 1 1 0 1 0 1 1
5 7 8 7 6 7 7 5 5 3 4 4 5 3 2 2 2 2 2 3 2 2 2 1 1 2 1 1 2 2 1 1 1 1 1 1 0 0 1 1 1 1 2 2
7 7 5 6 6 7 1 2 2 2 3 3 3 3 3 2 2 2 4 3 2 2 1 1 1 1 1 1 1 1 1 1 1 1 1 1 1 1 1 1 1 2 2 2
7 6 5 5 6 5 2 2 2 3 3 3 3 2 3 3 2 2 3 3 3 2 2 2 2 1 1 1 1 2 1 1 1 1 1 1 1 1 1 1 2 2 2 2
6 6 6 5 7 5 1 2 3 3 3 4 4 3 2 2 2 2 4 4 4 4 3 3 2 2 2 2 2 1 0 1 1 0 1 1 1 1 1 1 2 2 2 2
4 5 6 7 7 3 3 3 1 2 2 4 4 3 3 2 2 2 4 4 4 4 3 3 3 2 1 1 1 0 1 1 1 2 2 2 2 1 1 1 1 2 2 2
3 3 4 5 6 3 3 2 1 3 4 5 4 4 3 3 3 3 3 3 4 4 4 3 3 2 1 1 1 1 1 1 2 2 1 2 2 2 2 1 1 1 1 2
2 2 2 2 2 2 2 1 3 4 4 4 4 4 3 2 2 2 2 2 3 3 3 3 2 1 1 1 1 1 1 1 1 1 1 1 1 2 1 1 1 2 1 2
2 4 4 4 2 2 2 3 4 4 4 5 5 3 3 2 2 2 2 2 2 3 2 2 2 1 1 1 2 1 1 1 1 1 2 1 1 2 2 1 1 1 1 2
3 3 5 6 3 2 1 3 4 4 4 4 4 3 2 1 1 1 1 1 2 2 2 2 1 1 1 1 1 2 2 1 1 1 1 1 1 1 2 2 2 1 1 1
4 5 5 4 3 3 3 2 3 3 3 3 3 2 2 1 1 2 1 2 2 2 2 1 1 1 1 1 1 1 1 1 1 2 2 1 1 1 1 1 2 3 2 3
Wind_Direction
207 219 248 291 279 276 277 272 260 209 167 199 210 209 193 192 188 179 166 168 164 163 157 150 142 137 123 112 109 101 103 95 91 88 75 61 45 35 44 48 46 36 32 37
227 235 286 284 280 277 277 280 271 221 198 225 226 219 201 182 179 171 166 175 162 145 156 145 139 136 136 130 122 116 113 109 98 83 83 94 77 49 50 45 40 36 38 31
262 320 312 290 281 278 268 285 276 258 248 241 248 239 203 176 170 164 167 158 139 141 150 149 145 140 134 138 134 133 127 122 112 107 88 74 74 55 46 61 38 28 42 37
287 297 293 290 297 298 284 306 287 263 252 246 230 253 215 175 164 160 155 142 145 156 154 149 146 146 143 140 123 125 131 124 121 117 112 117 123 119 74 84 70 28 47 51
265 294 295 298 304 298 292 290 273 267 260 267 250 246 211 176 166 157 145 137 138 140 144 144 146 141 139 133 127 128 129 118 117 124 132 123 86 91 78 80 73 43 45 44
241 256 292 295 280 271 276 272 259 256 256 256 243 231 192 169 161 140 125 124 122 122 122 126 133 131 128 123 130 137 130 122 122 113 114 115 103 94 76 62 58 39 46 28
227 225 217 264 273 257 269 277 271 240 222 241 209 196 144 108 105 127 126 124 121 110 115 124 122 123 127 129 133 131 116 107 106 110 105 111 128 130 120 100 81 58 50 31
260 245 198 239 280 283 271 267 274 291 284 281 231 178 131 121 112 112 120 122 124 117 117 123 123 126 125 122 129 129 122 127 123 124 120 102 98 109 116 121 96 75 63 43
307 293 171 207 257 279 283 276 272 279 285 284 235 136 143 134 128 122 128 126 124 124 126 128 126 127 120 118 110 107 122 135 132 136 132 125 108 88 94 92 81 81 76 59
302 290 256 211 227 240 264 288 293 280 297 290 257 226 184 156 151 142 135 128 129 132 132 130 121 119 118 111 103 103 105 130 144 134 131 118 116 114 99 86 86 93 85 64
285 273 254 215 221 258 246 252 265 273 264 282 295 358 50 130 143 144 138 132 128 128 130 126 122 114 105 99 96 93 105 122 135 120 120 119 117 122 122 102 94 91 95 94
289 277 261 240 226 242 260 268 272 282 290 285 283 301 45 85 100 105 113 116 124 128 122 116 111 110 108 103 98 89 73 87 94 117 112 110 99 102 119 118 118 112 116 113
320 279 271 233 206 213 246 267 273 274 276 277 277 202 78 71 82 84 95 103 117 126 121 111 107 111 114 111 108 95 71 65 70 82 107 103 103 106 109 114 125 137 154 147
282 273 275 281 304 291 273 277 278 277 273 282 274 247 191 75 92 93 102 114 120 126 128 124 124 122 124 131 113 95 79 68 69 74 109 123 127 131 128 112 117 174 183 160
257 271 279 282 287 284 277 276 277 278 284 285 290 290 324 47 59 93 112 114 119 122 126 136 138 133 135 122 103 102 107 106 94 80 85 128 151 132 119 114 221 187 201 242
261 273 280 273 264 267 274 272 268 268 277 280 282 297 16 53 46 61 95 103 115 128 136 149 148 138 141 132 130 131 154 174 151 113 84 80 79 101 135 179 252 220 261 256
262 273 278 272 265 268 262 269 260 263 284 284 286 317 11 29 20 27 64 77 92 102 109 117 168 165 179 184 158 162 160 133 134 121 99 78 59 255 203 222 241 243 243 253
275 279 277 276 270 260 244 13 330 288 304 318 321 360 2 12 13 54 54 47 53 67 68 104 116 129 146 127 108 124 110 109 143 115 88 53 330 293 266 249 261 271 269 252
257 268 273 271 272 261 246 332 319 277 281 335 331 339 352 2 358 65 44 43 37 67 66 79 93 85 90 99 86 102 112 140 78 64 29 344 322 307 292 275 284 285 278 265
238 252 261 269 270 266 341 15 345 297 258 22 356 352 354 340 295 7 43 44 48 61 59 52 73 84 80 75 68 92 80 84 73 11 332 333 333 307 284 274 277 293 290 276
217 229 240 259 265 265 21 14 343 268 337 15 355 353 347 336 347 40 40 48 58 63 62 64 72 75 70 69 69 77 46 19 19 28 18 1 358 350 329 327 314 309 305 298
258 257 249 259 261 260 52 31 27 8 15 7 6 14 9 8 18 36 39 51 61 62 63 64 77 75 65 59 58 48 34 19 29 31 6 353 353 339 343 344 323 313 300 288
264 281 280 260 271 27 54 360 7 10 1 4 1 11 2 355 25 35 44 60 69 68 60 65 73 72 67 61 50 51 47 47 25 358 341 346 342 338 341 338 321 313 313 307
288 316 294 276 258 289 322 351 354 360 3 7 6 6 5 4 19 32 51 56 71 76 63 63 59 54 37 47 44 40 44 51 27 338 334 346 348 340 336 334 324 330 333 320
303 298 279 275 283 293 307 334 340 0 360 356 1 4 -0 14 13 18 36 56 72 67 67 66 49 16 22 42 35 37 29 12 334 319 326 334 334 332 336 355 350 333 296 278
267 267 260 271 308 300 296 330 340 336 334 338 334 337 353 6 27 39 44 55 71 84 81 76 63 34 27 30 17 26 24 354 330 317 318 322 326 328 331 338 343 346 308 310
Height
1490 1492 1494 1492 1491 1491 1491 1494 1497 1495 1493 1496 1499 1501 1501 1502 1502 1504 1506 1508 1510 1512 1515 1516 1518 1520 1521 1521 1522 1523 1523 1524 1524 1524 1525 1525 1525 1525 1525 1525 1524 1524 1523 1523
1491 1493 1491 1489 1489 1489 1491 1495 1496 1494 1491 1494 1498 1499 1497 1498 1500 1502 1504 1506 1508 1510 1512 1514 1516 1518 1519 1520 1521 1522 1523 1523 1523 1524 1524 1524 1524 1525 1525 1524 1524 1523 1523 1523
1493 1492 1489 1490 1490 1491 1492 1495 1496 1496 1493 1493 1498 1501 1497 1496 1498 1500 1502 1505 1507 1509 1511 1513 1514 1516 1518 1519 1520 1521 1521 1522 1522 1523 1523 1524 1524 1524 1524 1524 1523 1523 1522 1522
1491 1490 1490 1491 1492 1492 1496 1492 1492 1493 1498 1500 1497 1509 1497 1493 1496 1498 1501 1504 1506 1508 1509 1511 1513 1515 1516 1518 1519 1520 1520 1521 1521 1521 1522 1523 1523 1523 1523 1523 1522 1522 1522 1521
1494 1492 1492 1494 1494 1492 1494 1491 1492 1492 1493 1497 1494 1503 1500 1491 1496 1497 1500 1502 1505 1506 1508 1509 1512 1513 1515 1516 1517 1519 1519 1519 1520 1520 1521 1521 1521 1522 1522 1522 1521 1521 1521 1521
1492 1491 1492 1493 1492 1491 1490 1491 1490 1490 1493 1505 1493 1500 1503 1496 1494 1496 1498 1501 1504 1506 1507 1509 1510 1512 1514 1515 1516 1517 1518 1518 1519 1519 1519 1520 1520 1520 1520 1520 1520 1520 1520 1520
1493 1490 1490 1492 1492 1491 1491 1498 1506 1507 1507 1503 1486 1494 1501 1492 1491 1494 1497 1500 1502 1505 1506 1507 1509 1510 1512 1513 1515 1516 1516 1516 1517 1518 1518 1518 1519 1519 1519 1519 1519 1519 1519 1519
1495 1497 1491 1491 1494 1495 1492 1495 1510 1516 1509 1499 1487 1496 1496 1489 1491 1493 1496 1499 1502 1504 1505 1507 1508 1509 1511 1512 1514 1514 1514 1515 1516 1516 1516 1517 1517 1517 1517 1518 1518 1518 1518 1518
1494 1498 1490 1490 1491 1493 1494 1493 1490 1499 1497 1499 1493 1492 1493 1489 1491 1493 1496 1499 1501 1503 1505 1506 1507 1509 1510 1511 1512 1513 1514 1514 1514 1515 1515 1516 1516 1516 1516 1516 1516 1516 1516 1516
1491 1498 1491 1489 1491 1491 1491 1491 1495 1500 1507 1509 1499 1496 1497 1493 1492 1493 1495 1498 1500 1503 1504 1506 1507 1508 1509 1510 1511 1512 1512 1513 1513 1513 1514 1514 1515 1515 1515 1515 1515 1515 1515 1515
1490 1495 1494 1490 1492 1493 1492 1494 1494 1494 1495 1506 1510 1505 1486 1488 1489 1491 1494 1497 1499 1501 1503 1504 1506 1508 1508 1509 1510 1510 1511 1511 1511 1512 1512 1513 1513 1513 1514 1514 1514 1514 1513 1513
1490 1493 1495 1490 1486 1486 1488 1490 1494 1503 1500 1494 1501 1506 1485 1486 1488 1490 1493 1497 1499 1501 1502 1504 1505 1506 1507 1508 1509 1509 1509 1509 1510 1510 1510 1511 1511 1512 1512 1512 1512 1512 1512 1512
1494 1495 1499 1497 1494 1490 1489 1488 1489 1491 1494 1496 1502 1505 1487 1488 1489 1491 1494 1496 1498 1500 1502 1503 1504 1506 1506 1507 1507 1507 1508 1508 1508 1508 1509 1509 1510 1510 1510 1510 1510 1510 1510 1510
1496 1494 1498 1503 1496 1490 1491 1490 1488 1490 1496 1496 1496 1497 1490 1490 1491 1492 1494 1496 1498 1500 1501 1503 1504 1505 1505 1506 1506 1506 1506 1506 1506 1506 1507 1507 1508 1508 1508 1508 1509 1509 1509 1509
1494 1495 1490 1489 1487 1486 1488 1489 1488 1489 1489 1494 1492 1491 1490 1490 1491 1492 1494 1495 1497 1499 1501 1502 1502 1503 1504 1504 1504 1504 1504 1504 1505 1505 1505 1506 1506 1507 1507 1507 1507 1507 1507 1507
1492 1493 1491 1490 1485 1486 1488 1486 1486 1487 1487 1488 1488 1490 1487 1488 1490 1492 1493 1494 1496 1498 1500 1500 1501 1502 1502 1502 1502 1502 1502 1502 1503 1503 1503 1504 1504 1504 1505 1504 1505 1504 1504 1504
1491 1492 1493 1492 1486 1487 1491 1485 1484 1486 1485 1487 1490 1490 1487 1489 1490 1492 1493 1494 1496 1497 1498 1499 1500 1500 1501 1501 1501 1501 1501 1501 1501 1502 1502 1502 1502 1502 1502 1502 1502 1502 1501 1502
1491 1491 1491 1491 1491 1499 1491 1480 1481 1483 1485 1485 1486 1487 1488 1489 1491 1492 1493 1494 1495 1496 1497 1497 1498 1498 1499 1499 1499 1500 1500 1500 1500 1500 1500 1500 1500 1500 1500 1500 1500 1499 1499 1499
1488 1490 1493 1493 1495 1492 1487 1482 1482 1485 1487 1485 1486 1487 1488 1489 1490 1491 1492 1493 1494 1495 1495 1496 1496 1496 1497 1497 1498 1498 1498 1498 1498 1498 1498 1498 1498 1497 1497 1497 1497 1496 1496 1496
1487 1489 1493 1493 1497 1497 1490 1484 1482 1485 1489 1487 1487 1487 1488 1489 1492 1493 1493 1493 1493 1493 1494 1494 1495 1495 1495 1495 1496 1496 1496 1496 1496 1496 1496 1496 1496 1495 1495 1494 1494 1493 1493 1493
1489 1490 1494 1495 1495 1490 1487 1484 1484 1494 1494 1488 1488 1488 1489 1490 1492 1493 1492 1492 1492 1492 1492 1493 1493 1493 1494 1494 1494 1494 1494 1494 1495 1495 1495 1494 1494 1493 1493 1492 1491 1491 1490 1489
1488 1491 1492 1492 1495 1496 1487 1486 1489 1491 1489 1488 1488 1489 1489 1490 1491 1491 1491 1491 1491 1491 1491 1491 1491 1492 1492 1493 1493 1493 1492 1493 1493 1493 1493 1492 1492 1491 1490 1489 1488 1488 1487 1486
1485 1487 1488 1490 1493 1488 1487 1488 1489 1489 1489 1489 1489 1489 1489 1490 1490 1490 1490 1490 1490 1490 1490 1490 1491 1491 1491 1491 1491 1491 1491 1491 1491 1491 1491 1490 1490 1489 1488 1487 1486 1485 1484 1483
1485 1484 1485 1486 1486 1487 1487 1488 1488 1489 1489 1489 1489 1489 1489 1489 1489 1489 1490 1490 1489 1489 1489 1489 1489 1489 1490 1490 1490 1490 1489 1489 1489 1489 1488 1488 1487 1486 1485 1484 1483 1482 1481 1481
1486 1486 1486 1486 1486 1486 1487 1488 1488 1488 1488 1488 1488 1488 1488 1488 1488 1488 1488 1488 1488 1488 1488 1488 1488 1488 1488 1488 1488 1488 1488 1487 1486 1486 1486 1485 1485 1484 1483 1482 1481 1480 1479 1479
1486 1486 1487 1487 1486 1486 1486 1487 1487 1487 1487 1487 1487 1487 1487 1487 1486 1486 1487 1487 1487 1487 1487 1487 1487 1487 1487 1487 1486 1486 1485 1485 1484 1484 1483 1483 1482 1481 1480 1479 1478 1477 1477 1476